St. James, MN

5:52 PM CDT on October 16, 2017 (GMT -0500)
Saint James Municipal

Weather History for KJYG - January, 2013

Change the Weather History Date:

Thursday, January 3, 2013

  Actual Average Record
Temperature  
Mean Temperature 16 °F -  
Max Temperature 23 °F 23 °F 55 °F (1999)
Min Temperature 8 °F 5 °F -15 °F (1969)
Degree Days  
Heating Degree Days 50    
Moisture  
Dew Point 6 °F    
Average Humidity 70    
Maximum Humidity 79    
Minimum Humidity 63    
Precipitation  
Precipitation 0.00 in - - ()
Sea Level Pressure  
Sea Level Pressure 30.23 in    
Wind  
Wind Speed 15 mph (West)    
Max Wind Speed 28 mph    
Max Gust Speed 30 mph    
Visibility 8 miles    
Events Snow    
Averages and records for this station are not official NWS values.
T = Trace of Precipitation, MM = Missing Value Source: NWS Daily Summary

Daily Weather History Graph

Daily Weather History Graph

Search for Another Location

Airport or City:

Trip Planner

Search our weather history database for the weather conditions in past years. The results will help you decide how hot, cold, wet, or windy it might be!

Date:

Astronomy

Jan. 03, 2013 Rise Set
Actual Time 7:52 AM CST 4:53 PM CST
Civil Twilight 7:20 AM CST 5:25 PM CST
Nautical Twilight 6:43 AM CST 6:02 PM CST
Astronomical Twilight 6:08 AM CST 6:37 PM CST
Moon 11:44 PM CST (1/3) 10:51 AM CST (1/3)
Length of Visible Light 10h 05m
Length of Day
9h 00m
Waning Gibbous, 65% of the Moon is Illuminated
Jan 3
Waning Gibbous
Jan 4
Last Quarter
Jan 11
New
Jan 18
First Quarter
Jan 26
Full

Hourly Weather History & Observations

Time (CST) Temp. Windchill Dew Point Humidity Pressure Visibility Wind Dir Wind Speed Gust Speed Precip Events Conditions
12:15 AM 15.8 °F -1.5 °F 6.8 °F 68% 30.16 in 10.0 mi WNW 20.7 mph 27.6 mph N/A   Scattered Clouds
12:35 AM 15.8 °F 0.3 °F 6.8 °F 68% 30.16 in 10.0 mi WNW 16.1 mph 21.9 mph N/A   Scattered Clouds
12:55 AM 15.8 °F -1.5 °F 6.8 °F 68% 30.16 in 10.0 mi WNW 20.7 mph 28.8 mph N/A   Mostly Cloudy
1:15 AM 15.8 °F -1.1 °F 6.8 °F 68% 30.17 in 10.0 mi WNW 19.6 mph - N/A   Mostly Cloudy
1:35 AM 14.0 °F -2.5 °F 6.8 °F 73% 30.17 in 10.0 mi WNW 17.3 mph 23.0 mph N/A   Scattered Clouds
1:55 AM 15.8 °F -0.2 °F 6.8 °F 68% 30.17 in 10.0 mi WNW 17.3 mph - N/A   Scattered Clouds
2:15 AM 14.0 °F -3.0 °F 6.8 °F 73% 30.17 in 10.0 mi WNW 18.4 mph 26.5 mph N/A   Mostly Cloudy
2:35 AM 14.0 °F -2.5 °F 6.8 °F 73% 30.18 in 10.0 mi WNW 17.3 mph - N/A   Overcast
2:55 AM 14.0 °F -3.4 °F 6.8 °F 73% 30.18 in 10.0 mi WNW 19.6 mph 23.0 mph N/A   Mostly Cloudy
3:15 AM 14.0 °F -2.5 °F 6.8 °F 73% 30.19 in 7.0 mi WNW 17.3 mph 21.9 mph N/A   Mostly Cloudy
3:35 AM 14.0 °F -3.4 °F 6.8 °F 73% 30.19 in 4.0 mi West 19.6 mph 26.5 mph N/A Snow Light Snow
3:55 AM 14.0 °F -6.2 °F 6.8 °F 73% 30.19 in 3.0 mi WNW 27.6 mph - N/A Snow Light Snow
4:15 AM 12.2 °F -6.3 °F 5.0 °F 73% 30.20 in 5.0 mi WNW 20.7 mph 28.8 mph N/A   Haze
4:35 AM 12.2 °F -6.7 °F 5.0 °F 73% 30.20 in 4.0 mi WNW 21.9 mph 27.6 mph N/A   Haze
4:55 AM 12.2 °F -6.7 °F 5.0 °F 73% 30.21 in 7.0 mi WNW 21.9 mph - N/A   Overcast
5:15 AM 12.2 °F -6.3 °F 3.2 °F 67% 30.22 in 10.0 mi WNW 20.7 mph 27.6 mph N/A   Overcast
5:34 AM 12.2 °F -6.3 °F 5.0 °F 73% 30.22 in 4.0 mi WNW 20.7 mph 25.3 mph N/A   Haze
5:55 AM 10.4 °F -8.6 °F 3.2 °F 73% 30.23 in 1.5 mi WNW 20.7 mph 29.9 mph N/A Snow Light Snow
6:15 AM 10.4 °F -9.1 °F 3.2 °F 73% 30.25 in 2.5 mi WNW 21.9 mph 28.8 mph N/A   Haze
6:35 AM 8.6 °F -11.0 °F 1.4 °F 73% 30.25 in 4.0 mi WNW 20.7 mph 26.5 mph N/A   Haze
6:55 AM 8.6 °F -9.5 °F 1.4 °F 73% 30.26 in 4.0 mi WNW 17.3 mph 23.0 mph N/A   Haze
7:15 AM 8.6 °F -10.5 °F 1.4 °F 73% 30.26 in 5.0 mi WNW 19.6 mph 25.3 mph N/A   Haze
7:35 AM 8.6 °F -9.5 °F 1.4 °F 73% 30.27 in 5.0 mi WNW 17.3 mph - N/A   Haze
7:55 AM 8.6 °F -8.3 °F -0.4 °F 67% 30.27 in 5.0 mi WNW 15.0 mph - N/A   Haze
8:14 AM 8.6 °F -8.3 °F 1.4 °F 73% 30.27 in 3.0 mi WNW 15.0 mph - N/A   Haze
8:35 AM 8.6 °F -7.7 °F -0.4 °F 67% 30.28 in 3.0 mi WNW 13.8 mph - N/A   Haze
8:55 AM 8.6 °F -6.3 °F -0.4 °F 67% 30.28 in 3.0 mi WNW 11.5 mph - N/A   Haze
9:14 AM 8.6 °F -7.0 °F 1.4 °F 73% 30.29 in 7.0 mi WNW 12.7 mph - N/A   Overcast
9:35 AM 8.6 °F -8.3 °F 1.4 °F 73% 30.30 in 7.0 mi WNW 15.0 mph - N/A   Overcast
9:55 AM 10.4 °F -5.4 °F 1.4 °F 67% 30.30 in 10.0 mi West 13.8 mph - N/A   Overcast
10:14 AM 10.4 °F -5.4 °F 1.4 °F 67% 30.32 in 10.0 mi WNW 13.8 mph - N/A   Overcast
10:35 AM 10.4 °F -6.0 °F 1.4 °F 67% 30.32 in 10.0 mi WNW 15.0 mph - N/A   Overcast
10:55 AM 10.4 °F -8.2 °F 1.4 °F 67% 30.32 in 10.0 mi WNW 19.6 mph 25.3 mph N/A   Mostly Cloudy
11:15 AM 12.2 °F -5.3 °F 3.2 °F 67% 30.31 in 10.0 mi WNW 18.4 mph - N/A   Scattered Clouds
11:35 AM 12.2 °F -4.3 °F 3.2 °F 67% 30.30 in 10.0 mi WNW 16.1 mph - N/A   Clear
11:54 AM 12.2 °F -5.3 °F 3.2 °F 67% 30.30 in 10.0 mi WNW 18.4 mph - N/A   Clear
12:15 PM 14.0 °F -2.5 °F 5.0 °F 67% 30.29 in 10.0 mi WNW 17.3 mph 21.9 mph N/A   Clear
12:34 PM 15.8 °F 1.4 °F 6.8 °F 68% 30.29 in 10.0 mi WNW 13.8 mph - N/A   Clear
12:55 PM 15.8 °F 1.4 °F 6.8 °F 68% 30.29 in 10.0 mi WNW 13.8 mph - N/A   Clear
1:15 PM 17.6 °F 5.0 °F 6.8 °F 63% 30.28 in 10.0 mi WNW 11.5 mph 17.3 mph N/A   Scattered Clouds
1:35 PM 17.6 °F 5.7 °F 6.8 °F 63% 30.28 in 10.0 mi West 10.4 mph - N/A   Scattered Clouds
1:55 PM 17.6 °F 5.7 °F 8.6 °F 68% 30.27 in 7.0 mi WNW 10.4 mph - N/A Snow Light Snow
2:14 PM 17.6 °F 4.3 °F 8.6 °F 68% 30.28 in 10.0 mi West 12.7 mph - N/A Snow Light Snow
2:35 PM 19.4 °F 6.6 °F 8.6 °F 63% 30.28 in 10.0 mi West 12.7 mph - N/A Snow Light Snow
2:55 PM 19.4 °F 6.6 °F 8.6 °F 63% 30.27 in 5.0 mi WNW 12.7 mph - N/A Snow Light Snow
3:35 PM 19.4 °F 9.5 °F 8.6 °F 63% 30.28 in 10.0 mi West 8.1 mph - N/A   Mostly Cloudy
3:55 PM 19.4 °F 8.6 °F 8.6 °F 63% 30.28 in 10.0 mi West 9.2 mph - N/A   Mostly Cloudy
4:14 PM 17.6 °F - 8.6 °F 68% 30.27 in 10.0 mi Calm Calm - N/A   Scattered Clouds
4:35 PM 17.6 °F - 8.6 °F 68% 30.27 in 10.0 mi Calm Calm - N/A   Clear
4:55 PM 17.6 °F - 8.6 °F 68% 30.27 in 10.0 mi Calm Calm - N/A   Clear
5:15 PM 15.8 °F - 8.6 °F 73% 30.26 in 10.0 mi Calm Calm - N/A   Clear
5:35 PM 15.8 °F - 8.6 °F 73% 30.26 in 10.0 mi Calm Calm - N/A   Clear
5:55 PM 15.8 °F - 8.6 °F 73% 30.26 in 10.0 mi Calm Calm - N/A   Clear
6:15 PM 15.8 °F - 6.8 °F 68% 30.25 in 10.0 mi Calm Calm - N/A   Clear
6:35 PM 14.0 °F - 6.8 °F 73% 30.25 in 10.0 mi Calm Calm - N/A   Clear
6:55 PM 14.0 °F - 6.8 °F 73% 30.24 in 10.0 mi Calm Calm - N/A   Clear
7:14 PM 14.0 °F - 6.8 °F 73% 30.24 in 10.0 mi Calm Calm - N/A   Clear
7:35 PM 12.2 °F - 6.8 °F 79% 30.23 in 10.0 mi Calm Calm - N/A   Clear
7:55 PM 14.0 °F 2.9 °F 6.8 °F 73% 30.21 in 10.0 mi South 8.1 mph - N/A   Clear
8:14 PM 14.0 °F 3.9 °F 6.8 °F 73% 30.21 in 10.0 mi SSW 6.9 mph - N/A   Clear
8:34 PM 15.8 °F 6.1 °F 10.4 °F 79% 30.20 in 10.0 mi SSW 6.9 mph - N/A   Clear
8:55 PM 17.6 °F 6.4 °F 10.4 °F 73% 30.19 in 10.0 mi SSW 9.2 mph - N/A   Clear
9:15 PM 17.6 °F 6.4 °F 10.4 °F 73% 30.17 in 10.0 mi SSW 9.2 mph - N/A   Clear
9:35 PM 17.6 °F - 10.4 °F 73% 30.17 in 10.0 mi Calm Calm - N/A   Clear
9:55 PM 17.6 °F 8.2 °F 10.4 °F 73% 30.16 in 10.0 mi SSW 6.9 mph - N/A   Clear
10:14 PM 19.4 °F 9.5 °F 12.2 °F 74% 30.15 in 10.0 mi SSW 8.1 mph 16.1 mph N/A   Clear
10:35 PM 19.4 °F 7.9 °F 12.2 °F 74% 30.15 in 10.0 mi SSW 10.4 mph - N/A   Clear
10:55 PM 21.2 °F 7.3 °F 12.2 °F 68% 30.15 in 10.0 mi SSW 16.1 mph - N/A   Clear
11:15 PM 21.2 °F 7.3 °F 12.2 °F 68% 30.14 in 10.0 mi SSW 16.1 mph - N/A   Clear
11:35 PM 23.0 °F 10.1 °F 12.2 °F 63% 30.14 in 10.0 mi SW 15.0 mph 23.0 mph N/A   Clear
11:55 PM 21.2 °F 9.5 °F 12.2 °F 68% 30.13 in 10.0 mi SW 11.5 mph - N/A   Clear